Location: Beaurecueil
(43.5122°N, 5.5450°E)
Time: 13:49:35
(UTC+00:00)

Milstar 3 Cent rocket - Pass Details

Date: 18 September 2020
Orbit: 707 x 5145 km, 28.3° (Epoch: 29 October)

Event Time Altitude Azimuth Distance (km) Brightness Sun altitude
Rises 19:33:27 0° 225° (SW) 3,955 6.0 -20.5°
Reaches altitude 10° 19:38:27 10° 194° (SSW) 2,460 4.5 -21.3°
Enters shadow 19:39:36 11° 182° (S) 2,268 4.2 -21.5°
